JST531 YSSY-YMML

Flight info

Callsign JST531
Flight time 1h 22m
Altitude 34000
Route MARUB7/34R WOL H65 LEECE Q29 ML
Aircraft A320/M-SDE3FGHIRWY/LB1

Departure

Time 2026-05-04 09:01
Airport Sydney Kingsford Smith International Airport (YSSY)

Arrival

Time 2026-05-04 10:23
Airport Melbourne Airport (YMML)
Time Latitude Longitude Altitude Speed Heading
2026-05-04 08:16 -33.93463 151.17705 28 ft 0 kts 99°
2026-05-04 08:42 -33.93461 151.17693 30 ft 4 kts 99°
2026-05-04 08:42 -33.93456 151.17661 30 ft 4 kts 99°
2026-05-04 08:43 -33.93452 151.17629 30 ft 4 kts 102°
2026-05-04 08:43 -33.93443 151.17600 30 ft 4 kts 141°
2026-05-04 08:43 -33.93424 151.17594 30 ft 3 kts 194°
2026-05-04 08:43 -33.93400 151.17595 30 ft 2 kts 170°
2026-05-04 08:44 -33.93399 151.17594 30 ft 0 kts 170°
2026-05-04 08:47 -33.93409 151.17597 30 ft 0 kts 170°
2026-05-04 08:48 -33.93413 151.17597 30 ft 3 kts 176°
2026-05-04 08:48 -33.93460 151.17588 30 ft 9 kts 190°
2026-05-04 08:48 -33.93536 151.17597 30 ft 11 kts 168°
2026-05-04 08:48 -33.93611 151.17618 30 ft 11 kts 165°
2026-05-04 08:49 -33.93678 151.17654 30 ft 8 kts 149°
2026-05-04 08:50 -33.94200 151.17856 30 ft 22 kts 167°
2026-05-04 08:50 -33.94339 151.17892 30 ft 20 kts 168°
2026-05-04 08:51 -33.94448 151.17908 30 ft 13 kts 193°
2026-05-04 08:51 -33.94540 151.17884 30 ft 15 kts 164°
2026-05-04 08:51 -33.94668 151.17919 30 ft 22 kts 168°
2026-05-04 08:51 -33.94838 151.17964 30 ft 26 kts 167°
2026-05-04 08:52 -33.94999 151.18001 30 ft 19 kts 167°
2026-05-04 08:52 -33.95046 151.18016 30 ft 0 kts 166°
2026-05-04 08:52 -33.95068 151.18025 30 ft 8 kts 156°
2026-05-04 08:53 -33.95100 151.18109 30 ft 16 kts 82°
2026-05-04 08:54 -33.95229 151.18667 30 ft 19 kts 138°
2026-05-04 08:55 -33.95331 151.18724 30 ft 19 kts 169°
2026-05-04 08:55 -33.95472 151.18759 30 ft 23 kts 168°
2026-05-04 08:55 -33.95643 151.18804 30 ft 27 kts 167°
2026-05-04 08:55 -33.95841 151.18855 30 ft 30 kts 168°
2026-05-04 08:57 -33.97033 151.19119 30 ft 18 kts 169°
2026-05-04 09:01 -33.93804 151.28786 4126 ft 246 kts 79°
2026-05-04 09:01 -33.93672 151.30931 4524 ft 267 kts 81°
2026-05-04 09:01 -33.93563 151.33232 4935 ft 282 kts 82°
2026-05-04 09:01 -33.93487 151.35600 4999 ft 283 kts 83°
2026-05-04 09:02 -33.93429 151.37966 5008 ft 282 kts 83°
2026-05-04 09:02 -33.93376 151.40323 5000 ft 282 kts 83°
2026-05-04 09:02 -33.93319 151.42687 5004 ft 284 kts 83°
2026-05-04 09:02 -33.93255 151.45061 5004 ft 284 kts 83°
2026-05-04 09:03 -33.93185 151.47450 5175 ft 291 kts 83°
2026-05-04 09:03 -33.93132 151.49890 6092 ft 291 kts 87°
2026-05-04 09:03 -33.93543 151.52301 6947 ft 301 kts 111°
2026-05-04 09:03 -33.94718 151.54431 7641 ft 311 kts 133°
2026-05-04 09:04 -33.96385 151.56094 8462 ft 313 kts 148°
2026-05-04 09:04 -33.98344 151.57258 9204 ft 316 kts 163°
2026-05-04 09:04 -34.00491 151.57796 9957 ft 317 kts 181°
2026-05-04 09:04 -34.02679 151.57559 10551 ft 319 kts 197°
2026-05-04 09:05 -34.04805 151.56564 10639 ft 337 kts 216°
2026-05-04 09:05 -34.06581 151.54698 10935 ft 342 kts 237°
2026-05-04 09:05 -34.07921 151.52359 11675 ft 340 kts 240°
2026-05-04 09:05 -34.09341 151.50056 12376 ft 343 kts 237°
2026-05-04 09:06 -34.10853 151.47812 13097 ft 346 kts 235°
2026-05-04 09:07 -34.21784 151.31500 17253 ft 367 kts 238°
2026-05-04 09:08 -34.23359 151.29053 17857 ft 370 kts 237°
2026-05-04 09:08 -34.24951 151.26603 18449 ft 372 kts 237°
2026-05-04 09:08 -34.26566 151.24140 18968 ft 375 kts 237°
2026-05-04 09:08 -34.28199 151.21667 19516 ft 377 kts 237°
2026-05-04 09:09 -34.29830 151.19171 20078 ft 379 kts 238°
2026-05-04 09:09 -34.31470 151.16653 20606 ft 382 kts 238°
2026-05-04 09:09 -34.33122 151.14125 21202 ft 383 kts 238°
2026-05-04 09:09 -34.34772 151.11606 21826 ft 382 kts 238°
2026-05-04 09:10 -34.36422 151.09071 22363 ft 384 kts 238°
2026-05-04 09:10 -34.38073 151.06513 22929 ft 385 kts 239°
2026-05-04 09:10 -34.39725 151.03943 23413 ft 389 kts 239°
2026-05-04 09:10 -34.41395 151.01350 23857 ft 391 kts 239°
2026-05-04 09:11 -34.43075 150.98757 24319 ft 392 kts 239°
2026-05-04 09:11 -34.44770 150.96155 24721 ft 395 kts 239°
2026-05-04 09:11 -34.46480 150.93539 25133 ft 397 kts 239°
2026-05-04 09:11 -34.48173 150.90940 25532 ft 399 kts 239°
2026-05-04 09:12 -34.49890 150.88287 25919 ft 401 kts 239°
2026-05-04 09:12 -34.51611 150.85614 26317 ft 403 kts 240°
2026-05-04 09:14 -34.63602 150.66192 28820 ft 418 kts 243°
2026-05-04 09:14 -34.65303 150.63317 29156 ft 421 kts 243°
2026-05-04 09:14 -34.67020 150.60420 29443 ft 425 kts 242°
2026-05-04 09:14 -34.68761 150.57509 29828 ft 426 kts 242°
2026-05-04 09:15 -34.70519 150.54601 30186 ft 428 kts 242°
2026-05-04 09:15 -34.72291 150.51671 30423 ft 431 kts 242°
2026-05-04 09:15 -34.74065 150.48729 30764 ft 431 kts 242°
2026-05-04 09:15 -34.75829 150.45799 31212 ft 428 kts 242°
2026-05-04 09:17 -34.89483 150.22940 34034 ft 409 kts 243°
2026-05-04 09:18 -34.92807 150.17332 34046 ft 408 kts 243°
2026-05-04 09:18 -34.96133 150.11724 34046 ft 408 kts 243°
2026-05-04 09:19 -34.99460 150.06123 34045 ft 408 kts 243°
2026-05-04 09:19 -35.02784 150.00506 34050 ft 409 kts 243°
2026-05-04 09:20 -35.06110 149.94871 34065 ft 409 kts 243°
2026-05-04 09:20 -35.09439 149.89238 34073 ft 409 kts 243°
2026-05-04 09:21 -35.12738 149.83635 34076 ft 409 kts 244°
2026-05-04 09:21 -35.16052 149.77993 34078 ft 408 kts 244°
2026-05-04 09:22 -35.19358 149.72349 34079 ft 408 kts 244°
2026-05-04 09:22 -35.22672 149.66706 34080 ft 408 kts 244°
2026-05-04 09:23 -35.25979 149.61063 34077 ft 408 kts 244°
2026-05-04 09:23 -35.28720 149.56366 34088 ft 408 kts 244°
2026-05-04 09:25 -35.41890 149.33725 34110 ft 408 kts 244°
2026-05-04 09:26 -35.45178 149.28052 34109 ft 408 kts 244°
2026-05-04 09:26 -35.48461 149.22381 34108 ft 407 kts 244°
2026-05-04 09:27 -35.51740 149.16705 34107 ft 407 kts 245°
2026-05-04 09:27 -35.55011 149.11029 34103 ft 407 kts 245°
2026-05-04 09:28 -35.58281 149.05349 34095 ft 407 kts 245°
2026-05-04 09:28 -35.61545 148.99667 34098 ft 407 kts 245°
2026-05-04 09:29 -35.64811 148.93978 34103 ft 407 kts 245°
2026-05-04 09:29 -35.68056 148.88326 34102 ft 407 kts 245°
2026-05-04 09:30 -35.71319 148.82623 34110 ft 408 kts 245°
2026-05-04 09:30 -35.74575 148.76923 34095 ft 407 kts 245°
2026-05-04 09:31 -35.77830 148.71205 34094 ft 408 kts 245°
2026-05-04 09:31 -35.81088 148.65484 34100 ft 408 kts 245°
2026-05-04 09:32 -35.84342 148.59754 34100 ft 408 kts 245°
2026-05-04 09:34 -35.97351 148.36712 34096 ft 409 kts 245°
2026-05-04 09:34 -36.00594 148.30922 34101 ft 410 kts 245°
2026-05-04 09:35 -36.03843 148.25127 34093 ft 410 kts 245°
2026-05-04 09:35 -36.07093 148.19314 34101 ft 412 kts 245°
2026-05-04 09:37 -36.20140 147.95959 34094 ft 413 kts 245°
2026-05-04 09:38 -36.23387 147.90140 34096 ft 414 kts 244°
2026-05-04 09:38 -36.26656 147.84273 34098 ft 414 kts 244°
2026-05-04 09:39 -36.29916 147.78397 34094 ft 413 kts 244°
2026-05-04 09:39 -36.33170 147.72519 34091 ft 414 kts 244°
2026-05-04 09:40 -36.36430 147.66627 34088 ft 414 kts 244°
2026-05-04 09:40 -36.39687 147.60721 34086 ft 415 kts 244°
2026-05-04 09:42 -36.52674 147.37023 34073 ft 415 kts 244°
2026-05-04 09:43 -36.55917 147.31092 34074 ft 415 kts 244°
2026-05-04 09:43 -36.59155 147.25160 34079 ft 414 kts 244°
2026-05-04 09:44 -36.62386 147.19231 34078 ft 413 kts 244°
2026-05-04 09:46 -36.75201 146.95585 34067 ft 411 kts 245°
2026-05-04 09:46 -36.78393 146.89675 34063 ft 411 kts 245°
2026-05-04 09:47 -36.81586 146.83752 34061 ft 411 kts 245°
2026-05-04 09:49 -36.92609 146.63238 32970 ft 392 kts 246°
2026-05-04 09:49 -36.94116 146.60414 32539 ft 389 kts 246°
2026-05-04 09:49 -36.95608 146.57606 32104 ft 386 kts 246°
2026-05-04 09:51 -37.04409 146.41078 29606 ft 376 kts 248°
2026-05-04 09:51 -37.05852 146.38367 29214 ft 373 kts 247°
2026-05-04 09:51 -37.07285 146.35674 28822 ft 370 kts 247°
2026-05-04 09:51 -37.08706 146.32992 28409 ft 369 kts 247°
2026-05-04 09:52 -37.10122 146.30317 28001 ft 368 kts 247°
2026-05-04 09:52 -37.11530 146.27652 27590 ft 366 kts 246°
2026-05-04 09:52 -37.12935 146.24990 27179 ft 366 kts 246°
2026-05-04 09:52 -37.14340 146.22336 26769 ft 365 kts 245°
2026-05-04 09:53 -37.15743 146.19687 26351 ft 364 kts 245°
2026-05-04 09:53 -37.17124 146.17074 25938 ft 364 kts 244°
2026-05-04 09:53 -37.18519 146.14434 25504 ft 364 kts 244°
2026-05-04 09:53 -37.19913 146.11791 25105 ft 363 kts 243°
2026-05-04 09:54 -37.21288 146.09182 24982 ft 353 kts 243°
2026-05-04 09:54 -37.22627 146.06638 25003 ft 349 kts 244°
2026-05-04 09:54 -37.23949 146.04082 25001 ft 352 kts 238°
2026-05-04 09:54 -37.25795 146.01997 24918 ft 365 kts 218°
2026-05-04 09:55 -37.28175 146.00788 24550 ft 376 kts 196°
2026-05-04 09:55 -37.30809 146.00682 24193 ft 384 kts 176°
2026-05-04 09:55 -37.33441 146.01272 23843 ft 383 kts 172°
2026-05-04 09:55 -37.36037 146.01929 23521 ft 379 kts 172°
2026-05-04 09:56 -37.38614 146.02584 23126 ft 376 kts 172°
2026-05-04 09:56 -37.41166 146.03235 22705 ft 373 kts 172°
2026-05-04 09:56 -37.43701 146.03885 22298 ft 371 kts 172°
2026-05-04 09:56 -37.46224 146.04535 21894 ft 369 kts 172°
2026-05-04 09:57 -37.48732 146.05186 21483 ft 367 kts 172°
2026-05-04 09:57 -37.51229 146.05834 21060 ft 365 kts 174°
2026-05-04 09:57 -37.53713 146.05968 20675 ft 352 kts 194°
2026-05-04 09:57 -37.55966 146.05000 20300 ft 336 kts 217°
2026-05-04 09:58 -37.57671 146.03112 19905 ft 321 kts 239°
2026-05-04 09:58 -37.58602 146.00634 19518 ft 310 kts 259°
2026-05-04 09:58 -37.59081 145.97996 19103 ft 308 kts 262°
2026-05-04 10:00 -37.61769 145.79808 16525 ft 292 kts 266°
2026-05-04 10:00 -37.62129 145.77291 16191 ft 291 kts 262°
2026-05-04 10:02 -37.56122 145.65342 13820 ft 285 kts 348°
2026-05-04 10:04 -37.51723 145.53874 12891 ft 285 kts 244°
2026-05-04 10:04 -37.52731 145.51744 12618 ft 282 kts 244°
2026-05-04 10:04 -37.53733 145.49624 12364 ft 281 kts 244°
2026-05-04 10:04 -37.54727 145.47513 12099 ft 280 kts 244°
2026-05-04 10:05 -37.55742 145.45427 11837 ft 281 kts 239°
2026-05-04 10:05 -37.56896 145.43447 11588 ft 279 kts 239°
2026-05-04 10:05 -37.58044 145.41473 11326 ft 279 kts 239°
2026-05-04 10:05 -37.59184 145.39503 11077 ft 278 kts 239°
2026-05-04 10:06 -37.60319 145.37535 10826 ft 277 kts 239°
2026-05-04 10:06 -37.61447 145.35574 10581 ft 276 kts 239°
2026-05-04 10:06 -37.62577 145.33612 10337 ft 275 kts 239°
2026-05-04 10:08 -37.69273 145.22007 9166 ft 267 kts 239°
2026-05-04 10:08 -37.70331 145.20179 8974 ft 251 kts 239°
2026-05-04 10:08 -37.71350 145.18418 8725 ft 247 kts 239°
2026-05-04 10:08 -37.72351 145.16675 8452 ft 244 kts 239°
2026-05-04 10:09 -37.73342 145.14943 8129 ft 243 kts 240°
2026-05-04 10:09 -37.74325 145.13218 7857 ft 241 kts 240°
2026-05-04 10:09 -37.75283 145.11545 7593 ft 231 kts 240°
2026-05-04 10:09 -37.76385 145.10061 7347 ft 237 kts 218°
2026-05-04 10:10 -37.77948 145.09375 7052 ft 247 kts 196°
2026-05-04 10:10 -37.79643 145.09109 6821 ft 243 kts 193°
2026-05-04 10:10 -37.81312 145.08915 6648 ft 239 kts 192°
2026-05-04 10:10 -37.82965 145.08737 6401 ft 238 kts 192°
2026-05-04 10:11 -37.84629 145.08558 6130 ft 236 kts 192°
2026-05-04 10:11 -37.86244 145.08387 6003 ft 236 kts 192°
2026-05-04 10:11 -37.87877 145.08220 6003 ft 236 kts 192°
2026-05-04 10:11 -37.89523 145.08048 6003 ft 238 kts 192°
2026-05-04 10:12 -37.91168 145.07880 5995 ft 237 kts 192°
2026-05-04 10:12 -37.92800 145.07715 5804 ft 235 kts 192°
2026-05-04 10:12 -37.94430 145.07548 5492 ft 235 kts 192°
2026-05-04 10:12 -37.96056 145.07386 5228 ft 233 kts 192°
2026-05-04 10:13 -37.97597 145.06965 4936 ft 219 kts 216°
2026-05-04 10:13 -37.98374 145.06183 4740 ft 206 kts 239°
2026-05-04 10:13 -37.98856 145.04575 4425 ft 193 kts 274°
2026-05-04 10:13 -37.98485 145.02983 4129 ft 190 kts 298°
2026-05-04 10:14 -37.97766 145.01565 3827 ft 192 kts 309°
2026-05-04 10:14 -37.96761 145.00463 3652 ft 187 kts 317°
2026-05-04 10:16 -37.90459 144.94027 2998 ft 162 kts 316°
2026-05-04 10:16 -37.89582 144.93136 3005 ft 161 kts 317°
2026-05-04 10:16 -37.88706 144.92246 3008 ft 162 kts 317°
2026-05-04 10:16 -37.87824 144.91351 3011 ft 163 kts 317°
2026-05-04 10:17 -37.86942 144.90455 3014 ft 163 kts 317°
2026-05-04 10:17 -37.86059 144.89560 3019 ft 163 kts 316°
2026-05-04 10:19 -37.79295 144.86111 2218 ft 138 kts 343°
2026-05-04 10:19 -37.78361 144.85937 2096 ft 134 kts 343°
2026-05-04 10:19 -37.77456 144.85765 1945 ft 132 kts 344°
2026-05-04 10:19 -37.76544 144.85594 1752 ft 131 kts 345°
2026-05-04 10:20 -37.75639 144.85432 1583 ft 131 kts 346°
2026-05-04 10:20 -37.74723 144.85269 1398 ft 133 kts 344°
2026-05-04 10:20 -37.73804 144.85105 1135 ft 131 kts 348°
2026-05-04 10:20 -37.72903 144.84920 967 ft 133 kts 349°
2026-05-04 10:21 -37.71989 144.84728 765 ft 131 kts 352°
2026-05-04 10:21 -37.71079 144.84556 766 ft 132 kts 352°
2026-05-04 10:21 -37.70157 144.84399 721 ft 133 kts 353°
2026-05-04 10:21 -37.69241 144.84229 563 ft 133 kts 352°
2026-05-04 10:22 -37.67552 144.83918 365 ft 94 kts 351°
2026-05-04 10:22 -37.67042 144.83828 384 ft 54 kts 353°
2026-05-04 10:22 -37.66691 144.83777 394 ft 53 kts 352°
2026-05-04 10:23 -37.66516 144.83819 400 ft 16 kts 65°
2026-05-04 10:23 -37.66512 144.83838 404 ft 0 kts 77°
2026-05-04 10:25 -37.66517 144.84014 404 ft 14 kts 96°
2026-05-04 10:25 -37.66564 144.84136 402 ft 16 kts 141°
2026-05-04 10:25 -37.66705 144.84176 395 ft 26 kts 171°
2026-05-04 10:25 -37.66886 144.84211 389 ft 28 kts 174°
2026-05-04 10:26 -37.67052 144.84242 385 ft 21 kts 171°
2026-05-04 10:26 -37.67218 144.84273 381 ft 27 kts 171°
2026-05-04 10:26 -37.67329 144.84295 379 ft 17 kts 172°
2026-05-04 10:26 -37.67443 144.84315 377 ft 12 kts 167°
2026-05-04 10:27 -37.67476 144.84400 377 ft 9 kts 82°
2026-05-04 10:27 -37.67470 144.84441 378 ft 12 kts 81°
2026-05-04 10:27 -37.67455 144.84562 380 ft 14 kts 80°
2026-05-04 10:27 -37.67467 144.84626 380 ft 11 kts 157°
2026-05-04 10:28 -37.67525 144.84638 379 ft 1 kts 171°
2026-05-04 10:28 -37.67526 144.84638 379 ft 0 kts 172°